SCP
0 0 0 0 0 -0 0 0 -0 -0 -0 -0 0 0 0 0 0 0 0 0 0 0 0 0 0 0 0 0 0 -0 0 0
0 0 -0 -0 -0 -0 -0 -0 -0 -0 -0 0 0 0 0 0 0 0 0 0 0 0 0 0 0 0 0 0 0 0 0 0
0 -0 -0 -0 -0 -0 -0 -0 -0 -0 0 0 0 0 0 0 0 0 0 0 0 0 0 -0 0 -0 -0 -0 -0 -0 -0 -0
0 0 -0 -0 -0 -0 -0 -0 -0 -0 0 0 0 0 0 0 0 0 0 0 0 0 0 -0 0 0 -0 -0 0 -0 -0 0
0 0 -0 -0 -0 -0 -0 -0 -0 -0 0 0 -0 -0 -0 -0 -0 -0 -0 0 0 0 0 -0 0 -0 0 -0 -0 0 0 0
0 0 0 0 0 0 -0 -0 -0 -0 -0 -0 -0 -0 -0 -0 -0 0 -0 -0 0 0 0 -0 -0 -0 0 -0 -0 -0 -0 -0
0 0 -0 0 0 0 -0 -0 -0 -0 -0 -0 -0 -0 -0 -0 -0 0 -0 0 0 0 0 -0 -0 -0 0 0 -0 0 0 0
0 0 -0 0 -0 -0 0 0 0 0 -0 -0 -0 -0 -0 -0 -0 -0 0 0 0 0 0 0 0 0 -0 0 0 0 0 0
0 0 -0 -0 -0 -0 -0 0 0 0 0 -0 -0 -0 -0 -0 -0 0 0 0 0 0 0 0 0 0 -0 0 0 0 0 0
0 0 -0 -0 -0 -0 -0 0 -0 -0 -0 -0 -0 0 0 -0 -0 0 0 0 0 0 0 0 0 0 -0 -0 0 0 0 0
0 0 0 -0 0 0 -0 -0 -0 -0 -0 -0 -0 0 0 0 -0 0 0 0 0 0 0 0 0 0 0 0 0 -0 -0 0
0 0 0 0 0 0 0 0 0 0 -0 -0 -0 0 0 0 0 0 0 0 0 0 0 0 0 0 0 0 0 0 -0 0
0 0 0 0 0 0 0 0 0 0 0 0 0 0 0 0 0 0 0 0 0 0 0 0 0 0 -0 -0 0 0 0 0
0 0 0 0 0 0 0 0 0 0 0 0 0 0 0 0 0 0 0 0 0 0 -0 0 0 0 0 0 0 0 -0 0
0 0 0 0 0 0 0 0 0 0 0 0 0 0 0 0 0 0 0 0 -0 0 0 0 0 0 0 0 0 -0 0 0
0 0 0 0 0 0 0 0 -0 0 0 0 0 0 0 0 0 0 0 0 0 0 0 0 0 0 0 0 0 0 0 0
0 0 0 0 0 0 -0 0 -0 -0 0 0 0 0 0 0 0 0 0 0 0 0 0 0 0 0 0 0 0 0 0 0
0 0 0 0 0 0 0 0 0 -0 0 0 0 0 0 0 0 0 0 0 0 0 0 0 0 0 0 0 0 0 0 -0
0 0 0 0 0 0 0 0 0 0 0 0 0 0 0 0 0 0 0 0 0 0 0 0 0 0 0 -0 -0 -0 -0 -0
0 0 0 0 0 0 0 0 0 0 0 0 0 0 0 0 0 0 0 0 0 0 -0 0 -0 0 -0 -0 -0 -0 -0 -0
Wind_Speed_500mb
54 50 47 46 48 51 49 47 44 40 35 32 30 26 23 21 22 23 23 24 22 22 16 5 4 11 15 18 20 12 14 18
56 50 48 52 55 54 49 44 37 39 35 31 28 27 20 17 21 21 26 23 26 16 10 2 7 12 13 7 3 7 9 13
48 55 56 57 58 53 46 42 43 38 34 31 28 24 19 12 23 19 22 30 20 15 9 2 9 10 6 8 1 1 7 9
43 54 61 61 57 52 48 45 45 39 31 28 24 21 17 19 23 17 31 24 17 14 9 8 13 12 10 7 2 2 4 7
48 53 60 62 58 54 51 50 44 37 27 25 17 19 23 22 21 22 30 18 16 13 7 8 12 14 13 11 6 5 9 15
47 53 55 55 54 50 50 48 39 30 24 21 15 24 26 26 26 26 24 17 15 11 5 5 10 12 12 9 7 6 14 17
47 50 52 53 50 47 51 44 33 28 25 21 23 24 27 24 23 20 22 18 16 14 6 2 9 9 10 12 11 14 22 20
48 48 50 50 48 49 49 41 33 24 25 15 19 23 20 24 24 18 21 21 17 13 7 2 6 7 9 10 12 13 21 24
47 50 51 51 51 50 46 40 34 28 26 22 19 20 19 20 18 16 17 20 18 14 10 5 2 7 8 10 11 10 18 25
49 54 54 53 52 52 46 41 32 34 27 26 21 17 19 17 14 14 17 17 17 16 14 10 4 6 10 12 10 12 24 26
50 56 55 54 53 50 46 39 33 36 32 28 22 13 15 14 11 12 14 12 12 13 14 11 9 9 13 13 13 18 29 30
48 50 55 57 52 50 41 32 35 34 35 29 24 14 13 14 10 11 6 4 8 13 15 14 13 11 14 15 16 26 33 35
47 43 54 57 50 48 42 35 38 35 34 31 28 24 15 12 11 11 9 9 12 8 12 11 10 8 15 16 14 26 37 37
31 42 50 55 49 44 41 40 41 35 32 36 30 27 23 16 12 17 14 12 14 14 14 10 10 15 19 20 21 24 35 42
20 35 43 52 45 40 44 42 40 36 28 33 34 31 29 20 15 22 19 12 12 12 13 13 14 15 20 21 26 25 27 36
29 38 37 37 45 49 46 44 39 35 28 25 33 32 31 24 17 18 20 12 6 7 11 11 13 19 19 23 28 29 31 29
36 44 42 36 41 44 47 44 40 37 32 26 28 29 32 29 21 17 18 18 10 5 15 13 13 16 22 21 23 25 29 31
33 39 35 29 25 29 39 43 42 35 35 31 26 22 28 34 30 25 22 21 19 15 14 18 15 16 19 26 26 27 28 29
42 39 39 37 32 20 15 30 35 42 34 33 32 36 31 28 36 33 27 25 24 23 21 19 20 18 13 16 18 24 28 33
31 34 29 35 32 28 22 14 19 27 37 33 32 33 37 40 39 40 36 29 27 26 25 25 26 29 30 32 30 26 23 25
Wind_Direction_500mb
154 153 153 156 156 151 145 141 139 138 140 143 146 151 153 159 165 159 158 158 164 166 162 176 260 300 308 298 277 253 217 221
154 154 157 158 157 153 149 145 143 138 135 136 134 134 128 140 156 155 159 162 156 155 152 141 316 322 327 297 289 232 212 206
165 159 160 160 159 156 155 149 146 142 137 141 136 139 142 137 157 154 161 157 157 146 139 48 16 24 24 9 1 167 222 212
174 169 164 164 165 164 159 152 149 150 158 158 154 159 156 160 158 153 155 155 151 152 149 49 37 37 29 15 355 19 236 199
177 179 175 171 169 167 163 157 162 171 174 168 163 160 147 150 167 166 159 161 156 163 138 56 39 34 33 29 27 75 119 129
182 183 183 175 172 168 167 170 176 181 185 185 175 159 149 152 143 154 170 168 170 178 168 48 27 22 21 20 49 118 133 130
187 186 184 178 175 170 169 178 184 193 187 191 172 163 166 166 176 177 179 180 182 184 198 19 3 24 36 49 59 114 129 128
185 185 186 181 177 171 174 183 189 194 177 171 166 168 161 174 183 189 193 199 194 202 217 308 344 72 74 74 73 109 135 130
187 183 183 182 173 175 180 194 197 179 167 153 157 174 171 179 189 198 197 192 194 205 217 237 3 106 102 104 87 79 141 132
187 184 186 184 175 180 187 198 188 183 170 173 157 156 184 198 197 204 200 206 208 213 219 224 206 135 129 118 95 89 139 136
186 191 191 193 187 189 195 200 195 193 180 183 162 150 181 202 207 207 189 197 207 218 219 203 192 153 147 138 120 121 142 138
190 194 196 196 196 197 195 198 194 194 190 194 177 170 178 203 195 183 194 235 218 192 193 188 180 162 157 154 141 137 144 147
196 204 201 197 199 201 201 193 189 194 200 202 194 188 180 182 174 159 122 94 92 116 166 180 181 173 152 143 147 154 156 158
215 212 211 202 199 195 195 194 195 198 207 210 208 202 192 185 173 162 140 110 99 109 132 136 155 153 156 152 152 156 158 161
202 216 214 203 192 191 198 197 201 208 209 215 214 210 201 187 180 180 165 143 109 102 115 125 131 147 155 153 155 154 162 173
129 174 176 183 188 191 197 202 203 207 210 214 224 220 214 204 188 179 186 176 146 132 142 136 137 150 158 160 164 169 170 173
140 142 146 158 180 190 198 203 206 207 213 216 221 232 229 221 203 183 180 184 189 188 176 167 161 162 169 175 187 195 189 184
114 114 103 121 156 182 197 202 208 213 215 219 225 230 239 234 224 215 206 202 207 205 203 204 197 190 196 201 200 201 201 207
89 87 88 89 90 105 163 202 207 215 218 220 227 234 238 247 242 234 229 224 220 223 224 230 234 242 244 234 225 223 221 219
81 94 91 84 88 82 88 123 191 212 223 227 234 242 247 246 248 247 242 239 236 232 226 230 240 245 251 254 257 256 253 244
Wind_Speed_850mb
54 50 47 46 48 51 49 47 44 40 35 32 30 26 23 21 22 23 23 24 22 22 16 5 4 11 15 18 20 12 14 18
56 50 48 52 55 54 49 44 37 39 35 31 28 27 20 17 21 21 26 23 26 16 10 2 7 12 13 7 3 7 9 13
48 55 56 57 58 53 46 42 43 38 34 31 28 24 19 12 23 19 22 30 20 15 9 2 9 10 6 8 1 1 7 9
43 54 61 61 57 52 48 45 45 39 31 28 24 21 17 19 23 17 31 24 17 14 9 8 13 12 10 7 2 2 4 7
48 53 60 62 58 54 51 50 44 37 27 25 17 19 23 22 21 22 30 18 16 13 7 8 12 14 13 11 6 5 9 15
47 53 55 55 54 50 50 48 39 30 24 21 15 24 26 26 26 26 24 17 15 11 5 5 10 12 12 9 7 6 14 17
47 50 52 53 50 47 51 44 33 28 25 21 23 24 27 24 23 20 22 18 16 14 6 2 9 9 10 12 11 14 22 20
48 48 50 50 48 49 49 41 33 24 25 15 19 23 20 24 24 18 21 21 17 13 7 2 6 7 9 10 12 13 21 24
47 50 51 51 51 50 46 40 34 28 26 22 19 20 19 20 18 16 17 20 18 14 10 5 2 7 8 10 11 10 18 25
49 54 54 53 52 52 46 41 32 34 27 26 21 17 19 17 14 14 17 17 17 16 14 10 4 6 10 12 10 12 24 26
50 56 55 54 53 50 46 39 33 36 32 28 22 13 15 14 11 12 14 12 12 13 14 11 9 9 13 13 13 18 29 30
48 50 55 57 52 50 41 32 35 34 35 29 24 14 13 14 10 11 6 4 8 13 15 14 13 11 14 15 16 26 33 35
47 43 54 57 50 48 42 35 38 35 34 31 28 24 15 12 11 11 9 9 12 8 12 11 10 8 15 16 14 26 37 37
31 42 50 55 49 44 41 40 41 35 32 36 30 27 23 16 12 17 14 12 14 14 14 10 10 15 19 20 21 24 35 42
20 35 43 52 45 40 44 42 40 36 28 33 34 31 29 20 15 22 19 12 12 12 13 13 14 15 20 21 26 25 27 36
29 38 37 37 45 49 46 44 39 35 28 25 33 32 31 24 17 18 20 12 6 7 11 11 13 19 19 23 28 29 31 29
36 44 42 36 41 44 47 44 40 37 32 26 28 29 32 29 21 17 18 18 10 5 15 13 13 16 22 21 23 25 29 31
33 39 35 29 25 29 39 43 42 35 35 31 26 22 28 34 30 25 22 21 19 15 14 18 15 16 19 26 26 27 28 29
42 39 39 37 32 20 15 30 35 42 34 33 32 36 31 28 36 33 27 25 24 23 21 19 20 18 13 16 18 24 28 33
31 34 29 35 32 28 22 14 19 27 37 33 32 33 37 40 39 40 36 29 27 26 25 25 26 29 30 32 30 26 23 25
Wind_Direction_850mb
154 153 153 156 156 151 145 141 139 138 140 143 146 151 153 159 165 159 158 158 164 166 162 176 260 300 308 298 277 253 217 221
154 154 157 158 157 153 149 145 143 138 135 136 134 134 128 140 156 155 159 162 156 155 152 141 316 322 327 297 289 232 212 206
165 159 160 160 159 156 155 149 146 142 137 141 136 139 142 137 157 154 161 157 157 146 139 48 16 24 24 9 1 167 222 212
174 169 164 164 165 164 159 152 149 150 158 158 154 159 156 160 158 153 155 155 151 152 149 49 37 37 29 15 355 19 236 199
177 179 175 171 169 167 163 157 162 171 174 168 163 160 147 150 167 166 159 161 156 163 138 56 39 34 33 29 27 75 119 129
182 183 183 175 172 168 167 170 176 181 185 185 175 159 149 152 143 154 170 168 170 178 168 48 27 22 21 20 49 118 133 130
187 186 184 178 175 170 169 178 184 193 187 191 172 163 166 166 176 177 179 180 182 184 198 19 3 24 36 49 59 114 129 128
185 185 186 181 177 171 174 183 189 194 177 171 166 168 161 174 183 189 193 199 194 202 217 308 344 72 74 74 73 109 135 130
187 183 183 182 173 175 180 194 197 179 167 153 157 174 171 179 189 198 197 192 194 205 217 237 3 106 102 104 87 79 141 132
187 184 186 184 175 180 187 198 188 183 170 173 157 156 184 198 197 204 200 206 208 213 219 224 206 135 129 118 95 89 139 136
186 191 191 193 187 189 195 200 195 193 180 183 162 150 181 202 207 207 189 197 207 218 219 203 192 153 147 138 120 121 142 138
190 194 196 196 196 197 195 198 194 194 190 194 177 170 178 203 195 183 194 235 218 192 193 188 180 162 157 154 141 137 144 147
196 204 201 197 199 201 201 193 189 194 200 202 194 188 180 182 174 159 122 94 92 116 166 180 181 173 152 143 147 154 156 158
215 212 211 202 199 195 195 194 195 198 207 210 208 202 192 185 173 162 140 110 99 109 132 136 155 153 156 152 152 156 158 161
202 216 214 203 192 191 198 197 201 208 209 215 214 210 201 187 180 180 165 143 109 102 115 125 131 147 155 153 155 154 162 173
129 174 176 183 188 191 197 202 203 207 210 214 224 220 214 204 188 179 186 176 146 132 142 136 137 150 158 160 164 169 170 173
140 142 146 158 180 190 198 203 206 207 213 216 221 232 229 221 203 183 180 184 189 188 176 167 161 162 169 175 187 195 189 184
114 114 103 121 156 182 197 202 208 213 215 219 225 230 239 234 224 215 206 202 207 205 203 204 197 190 196 201 200 201 201 207
89 87 88 89 90 105 163 202 207 215 218 220 227 234 238 247 242 234 229 224 220 223 224 230 234 242 244 234 225 223 221 219
81 94 91 84 88 82 88 123 191 212 223 227 234 242 247 246 248 247 242 239 236 232 226 230 240 245 251 254 257 256 253 244